DW6912 Weather Reports


Display with metric or nautical units.
time (UTC)temp
F
wind
direction
speed
MPH
gust
MPH
rain 1hr
in
rain 24hr
in
rain mn
in
humidity
%
barometer
mb
20260503200100 59 257 2.0 10.0 0.00 0.00 0.00 50 1011.7
20260503200000 59 275 2.0 10.0 0.00 0.00 0.00 48 1011.6
20260503195858 59 311 2.0 13.0 0.00 0.00 0.00 47 1011.6
20260503195558 59 257 2.0 13.0 0.00 0.00 0.00 45 1011.6
20260503195459 59 336 3.0 13.0 0.00 0.00 0.00 45 1011.7
20260503195058 59 242 1.0 13.0 0.00 0.00 0.00 46 1011.5
20260503195000 59 231 4.0 13.0 0.00 0.00 0.00 45 1011.6
20260503194859 59 301 3.0 8.0 0.00 0.00 0.00 45 1011.6
20260503194758 59 237 3.0 8.0 0.00 0.00 0.00 44 1011.6
20260503194659 59 214 4.0 8.0 0.00 0.00 0.00 48 1011.6
20260503194600 59 204 6.0 8.0 0.00 0.00 0.00 45 1011.7
20260503194501 59 265 6.0 7.0 0.00 0.00 0.00 49 1011.6
20260503194358 59 298 1.0 7.0 0.00 0.00 0.00 47 1011.7
20260503194258 59 261 3.0 7.0 0.00 0.00 0.00 46 1011.7
20260503194158 59 276 3.0 7.0 0.00 0.00 0.00 48 1011.7
20260503194100 59 19 2.0 7.0 0.00 0.00 0.00 46 1011.7
20260503193858 59 297 5.0 9.0 0.00 0.00 0.00 47 1011.9
20260503193758 59 261 3.0 9.0 0.00 0.00 0.00 49 1011.8
20260503193659 59 40 3.0 9.0 0.00 0.00 0.00 47 1011.9
20260503193558 59 275 2.0 9.0 0.00 0.00 0.00 47 1011.9
20260503193500 58 275 2.0 9.0 0.00 0.00 0.00 45 1011.8
20260503193359 58 270 7.0 9.0 0.00 0.00 0.00 46 1011.8
20260503193258 58 212 4.0 9.0 0.00 0.00 0.00 48 1011.9
20260503193158 58 245 1.0 9.0 0.00 0.00 0.00 45 1011.9
20260503193058 58 255 3.0 9.0 0.00 0.00 0.00 45 1011.8
20260503192959 58 265 7.0 8.0 0.00 0.00 0.00 48 1011.8
20260503192857 58 205 3.0 7.0 0.00 0.00 0.00 47 1011.9
20260503192757 58 246 3.0 7.0 0.00 0.00 0.00 49 1011.9
20260503192659 59 265 3.0 7.0 0.00 0.00 0.00 47 1011.9
20260503192557 59 258 2.0 7.0 0.00 0.00 0.00 45 1011.9
20260503192501 59 258 2.0 7.0 0.00 0.00 0.00 48 1011.9
20260503192358 59 261 4.0 7.0 0.00 0.00 0.00 51 1011.9
20260503192257 59 277 1.0 7.0 0.00 0.00 0.00 48 1011.8
20260503192200 59 256 1.0 7.0 0.00 0.00 0.00 50 1011.9
20260503192057 59 252 2.0 7.0 0.00 0.00 0.00 46 1011.9
20260503192000 59 259 2.0 7.0 0.00 0.00 0.00 48 1012.0
20260503191859 59 259 3.0 7.0 0.00 0.00 0.00 50 1012.0
20260503191758 59 273 3.0 7.0 0.00 0.00 0.00 47 1012.0
20260503191559 59 235 2.0 12.0 0.00 0.00 0.00 45 1012.0
20260503191500 59 242 5.0 12.0 0.00 0.00 0.00 47 1012.0
20260503191359 59 252 1.0 12.0 0.00 0.00 0.00 46 1012.0
20260503191259 59 262 4.0 12.0 0.00 0.00 0.00 45 1012.0
20260503191158 59 246 5.0 12.0 0.00 0.00 0.00 49 1012.0
20260503191100 59 245 4.0 12.0 0.00 0.00 0.00 50 1012.1
20260503191000 58 313 4.0 12.0 0.00 0.00 0.00 49 1012.1
20260503190858 58 254 2.0 12.0 0.00 0.00 0.00 47 1012.2
20260503190758 58 323 2.0 12.0 0.00 0.00 0.00 48 1012.1
20260503190700 58 237 6.0 12.0 0.00 0.00 0.00 47 1012.1
20260503190501 58 257 3.0 8.0 0.00 0.00 0.00 47 1012.2
20260503190358 57 250 3.0 8.0 0.00 0.00 0.00 46 1012.2
20260503190258 57 250 2.0 8.0 0.00 0.00 0.00 47 1012.2
20260503190159 57 259 1.0 8.0 0.00 0.00 0.00 47 1012.2
20260503190059 57 259 4.0 8.0 0.00 0.00 0.00 46 1012.3
20260503185858 57 261 2.0 8.0 0.00 0.00 0.00 45 1012.3
20260503185757 57 258 6.0 8.0 0.00 0.00 0.00 46 1012.3
20260503185659 57 273 4.0 7.0 0.00 0.00 0.00 46 1012.3
20260503185558 57 252 4.0 7.0 0.00 0.00 0.00 46 1012.2
20260503185500 57 235 2.0 7.0 0.00 0.00 0.00 48 1012.3
20260503185359 58 254 2.0 7.0 0.00 0.00 0.00 45 1012.2
20260503185059 58 290 1.0 7.0 0.00 0.00 0.00 45 1012.4
20260503185000 58 284 3.0 7.0 0.00 0.00 0.00 47 1012.4
20260503184859 58 287 2.0 7.0 0.00 0.00 0.00 46 1012.3
20260503184758 58 259 2.0 7.0 0.00 0.00 0.00 46 1012.3
20260503184558 58 277 2.0 6.0 0.00 0.00 0.00 50 1012.4
20260503184500 58 240 4.0 6.0 0.00 0.00 0.00 49 1012.4
20260503184357 57 5 3.0 6.0 0.00 0.00 0.00 49 1012.4
20260503184157 57 276 2.0 6.0 0.00 0.00 0.00 49 1012.4
20260503184058 57 276 3.0 6.0 0.00 0.00 0.00 50 1012.4
20260503183959 57 355 4.0 6.0 0.00 0.00 0.00 51 1012.5
20260503183858 56 9 3.0 6.0 0.00 0.00 0.00 50 1012.5
20260503183758 56 39 3.0 6.0 0.00 0.00 0.00 47 1012.5
20260503183659 56 5 3.0 6.0 0.00 0.00 0.00 45 1012.6
20260503183558 56 325 2.0 6.0 0.00 0.00 0.00 45 1012.6
20260503183500 57 355 4.0 6.0 0.00 0.00 0.00 46 1012.7
20260503183358 57 31 5.0 6.0 0.00 0.00 0.00 47 1012.6
20260503183259 57 309 2.0 6.0 0.00 0.00 0.00 44 1012.5
20260503182958 57 277 2.0 7.0 0.00 0.00 0.00 48 1012.7
20260503182858 57 267 2.0 7.0 0.00 0.00 0.00 50 1012.6
20260503182759 57 351 2.0 7.0 0.00 0.00 0.00 46 1012.6
20260503182658 57 248 1.0 7.0 0.00 0.00 0.00 45 1012.6
20260503182500 57 246 1.0 7.0 0.00 0.00 0.00 45 1012.6
20260503182259 56 239 3.0 7.0 0.00 0.00 0.00 50 1012.7
20260503182159 56 263 7.0 7.0 0.00 0.00 0.00 49 1012.7
20260503182058 56 310 1.0 7.0 0.00 0.00 0.00 50 1012.7
20260503181758 56 242 4.0 7.0 0.00 0.00 0.00 46 1012.8
20260503181658 57 257 1.0 7.0 0.00 0.00 0.00 47 1012.8
20260503181559 57 257 2.0 7.0 0.00 0.00 0.00 45 1012.8
20260503181459 57 252 1.0 5.0 0.00 0.00 0.00 46 1012.8
20260503181258 57 247 0.0 5.0 0.00 0.00 0.00 46 1012.8
20260503181059 57 345 5.0 7.0 0.00 0.00 0.00 47 1012.7
20260503181001 57 214 3.0 7.0 0.00 0.00 0.00 46 1012.7
20260503180858 57 213 2.0 7.0 0.00 0.00 0.00 53 1012.7
20260503180758 57 261 3.0 7.0 0.00 0.00 0.00 48 1012.8
20260503180558 57 263 1.0 7.0 0.00 0.00 0.00 48 1012.7
20260503180459 57 275 1.0 7.0 0.00 0.00 0.00 46 1012.7
20260503180258 57 271 6.0 9.0 0.00 0.00 0.00 49 1012.7
20260503180059 57 11 4.0 9.0 0.00 0.00 0.00 48 1012.8
20260503175959 57 9 2.0 9.0 0.00 0.00 0.00 47 1012.8
20260503175800 57 13 1.0 9.0 0.00 0.00 0.00 47 1012.8
20260503175658 57 13 2.0 9.0 0.00 0.00 0.00 49 1012.9
20260503175558 57 340 5.0 9.0 0.00 0.00 0.00 45 1012.9
20260503175500 57 234 4.0 8.0 0.00 0.00 0.00 49 1012.9
20260503175359 57 254 2.0 11.0 0.00 0.00 0.00 51 1012.8
20260503175258 57 235 2.0 11.0 0.00 0.00 0.00 51 1012.8
20260503175158 56 234 2.0 11.0 0.00 0.00 0.00 51 1013.0
20260503175058 56 234 2.0 11.0 0.00 0.00 0.00 47 1012.9
20260503175000 56 209 4.0 11.0 0.00 0.00 0.00 47 1013.0
20260503174857 56 252 4.0 11.0 0.00 0.00 0.00 51 1013.0
20260503174758 56 197 8.0 11.0 0.00 0.00 0.00 48 1013.0
20260503174658 56 317 5.0 12.0 0.00 0.00 0.00 49 1013.0
20260503174559 56 25 4.0 12.0 0.00 0.00 0.00 47 1013.0
20260503174500 56 301 5.0 12.0 0.00 0.00 0.00 50 1013.0
20260503174359 56 323 5.0 12.0 0.00 0.00 0.00 49 1013.0
20260503174259 56 27 3.0 12.0 0.00 0.00 0.00 48 1013.1
20260503174158 56 24 4.0 12.0 0.00 0.00 0.00 46 1013.1
20260503174058 56 296 3.0 12.0 0.00 0.00 0.00 47 1013.1
20260503174000 56 333 4.0 12.0 0.00 0.00 0.00 49 1013.2
20260503173758 57 286 3.0 12.0 0.00 0.00 0.00 49 1013.1
20260503173657 57 286 6.0 12.0 0.00 0.00 0.00 48 1013.0
20260503173359 57 246 5.0 8.0 0.00 0.00 0.00 50 1013.1
20260503173259 57 262 6.0 8.0 0.00 0.00 0.00 50 1013.1
20260503173159 57 250 2.0 10.0 0.00 0.00 0.00 47 1013.1
20260503172959 57 215 4.0 10.0 0.00 0.00 0.00 45 1013.0
20260503172858 57 292 3.0 10.0 0.00 0.00 0.00 48 1013.1
20260503172800 57 252 4.0 10.0 0.00 0.00 0.00 48 1013.0
20260503172658 57 284 2.0 10.0 0.00 0.00 0.00 49 1013.1
20260503172558 57 247 3.0 10.0 0.00 0.00 0.00 51 1013.1
20260503172258 56 259 6.0 10.0 0.00 0.00 0.00 50 1013.2
20260503172159 56 233 3.0 10.0 0.00 0.00 0.00 52 1013.2
20260503172057 56 244 4.0 10.0 0.00 0.00 0.00 51 1013.2
20260503171959 56 203 3.0 10.0 0.00 0.00 0.00 50 1013.2
20260503171758 56 75 9.0 9.0 0.00 0.00 0.00 49 1013.2
20260503171658 56 253 4.0 9.0 0.00 0.00 0.00 52 1013.3
20260503171600 56 259 3.0 9.0 0.00 0.00 0.00 47 1013.2
20260503171358 56 194 2.0 9.0 0.00 0.00 0.00 51 1013.2
20260503171258 56 205 3.0 9.0 0.00 0.00 0.00 48 1013.4
20260503171159 56 271 4.0 9.0 0.00 0.00 0.00 50 1013.4
20260503171058 55 254 5.0 9.0 0.00 0.00 0.00 50 1013.3
20260503171001 55 225 2.0 9.0 0.00 0.00 0.00 48 1013.3
20260503170859 55 225 3.0 9.0 0.00 0.00 0.00 48 1013.4
20260503170758 55 221 3.0 9.0 0.00 0.00 0.00 52 1013.4
20260503170658 55 282 2.0 8.0 0.00 0.00 0.00 46 1013.3
20260503170501 56 242 4.0 8.0 0.00 0.00 0.00 46 1013.4
20260503170357 56 267 3.0 8.0 0.00 0.00 0.00 50 1013.4
20260503170258 56 282 3.0 8.0 0.00 0.00 0.00 50 1013.5
20260503170159 56 355 2.0 8.0 0.00 0.00 0.00 50 1013.5
20260503151004 51 355 1.0 15.0 0.00 0.00 0.00 51 1014.4
20260503150859 51 304 3.0 15.0 0.00 0.00 0.00 51 1014.3
20260503150759 51 263 11.0 15.0 0.00 0.00 0.00 51 1014.3
20260503150659 51 231 5.0 6.0 0.00 0.00 0.00 53 1014.4
20260503150601 51 262 4.0 8.0 0.00 0.00 0.00 55 1014.3
20260503150359 51 299 4.0 8.0 0.00 0.00 0.00 55 1014.3
20260503150159 51 281 2.0 8.0 0.00 0.00 0.00 51 1014.3
20260503140258 49 323 2.0 13.0 0.00 0.00 0.00 59 1014.6
20260503140158 49 238 3.0 13.0 0.00 0.00 0.00 57 1014.6
20260503131358 47 240 2.0 8.0 0.00 0.00 0.00 58 1014.8
20260503131259 47 239 5.0 8.0 0.00 0.00 0.00 59 1014.8
20260503131158 47 252 4.0 8.0 0.00 0.00 0.00 60 1014.8
20260503131058 47 257 5.0 7.0 0.00 0.00 0.00 63 1014.8
20260503130858 47 256 4.0 7.0 0.00 0.00 0.00 60 1014.8
20260503130757 47 252 3.0 6.0 0.00 0.00 0.00 61 1014.8
20260503130658 47 236 4.0 8.0 0.00 0.00 0.00 62 1014.7
20260503130558 47 301 1.0 10.0 0.00 0.00 0.00 62 1014.8
20260503130500 46 301 2.0 10.0 0.00 0.00 0.00 62 1014.8
20260503130358 46 15 2.0 10.0 0.00 0.00 0.00 63 1014.8
20260503130259 46 355 4.0 10.0 0.00 0.00 0.00 63 1014.8
20260503130158 46 355 3.0 10.0 0.00 0.00 0.00 63 1014.8
20260503120158 42 254 1.0 4.0 0.00 0.00 0.00 72 1014.7
20260503110756 40 36 1.0 5.0 0.00 0.00 0.00 72 1014.1
20260503110657 40 36 2.0 5.0 0.00 0.00 0.00 71 1014.1
20260503110558 41 13 3.0 5.0 0.00 0.00 0.00 72 1014.1
20260503110357 40 13 3.0 5.0 0.00 0.00 0.00 72 1014.1
20260503110257 40 18 4.0 5.0 0.00 0.00 0.00 71 1014.1
20260503110158 41 5 1.0 6.0 0.00 0.00 0.00 72 1014.1
20260503100257 40 340 4.0 9.0 0.00 0.00 0.00 71 1013.1
20260503100158 40 360 2.0 10.0 0.00 0.00 0.00 71 1013.1
20260503090459 41 44 1.0 10.0 0.00 0.00 0.00 70 1012.4
20260503090359 41 46 1.0 10.0 0.00 0.00 0.00 70 1012.5
20260503090259 41 46 2.0 10.0 0.00 0.00 0.00 69 1012.5
20260503090158 41 46 1.0 10.0 0.00 0.00 0.00 69 1012.5
20260503081558 43 287 2.0 8.0 0.00 0.01 0.00 67 1012.1
20260503081501 43 287 2.0 8.0 0.00 0.01 0.00 67 1012.1
20260503081357 43 284 2.0 8.0 0.00 0.01 0.00 68 1012.1
20260503081258 43 306 2.0 8.0 0.00 0.01 0.00 67 1012.1
20260503081158 43 306 4.0 8.0 0.00 0.01 0.00 67 1012.1
20260503081058 43 318 3.0 5.0 0.00 0.01 0.00 68 1012.1
20260503080959 43 318 2.0 4.0 0.00 0.01 0.00 68 1012.1
20260503080857 44 318 1.0 4.0 0.00 0.01 0.00 68 1012.1
20260503080658 44 317 2.0 4.0 0.00 0.01 0.00 68 1012.1
20260503080558 44 315 3.0 4.0 0.00 0.01 0.00 68 1012.1
20260503080500 44 255 1.0 4.0 0.00 0.01 0.00 68 1012.1
20260503080357 44 253 3.0 4.0 0.00 0.01 0.00 68 1012.1
20260503080258 44 292 1.0 4.0 0.00 0.01 0.00 68 1012.0
20260503080157 44 292 0.0 4.0 0.00 0.01 0.00 68 1012.0
20260503072657 44 5 2.0 4.0 0.00 0.01 0.00 67 1011.8
20260503072557 44 5 1.0 6.0 0.00 0.01 0.00 67 1011.9
20260503072459 44 5 3.0 6.0 0.00 0.01 0.00 67 1011.9
20260503072258 44 17 0.0 6.0 0.00 0.01 0.00 67 1011.8
20260503071958 44 17 1.0 6.0 0.00 0.01 0.00 68 1011.7
20260503071857 44 17 0.0 6.0 0.00 0.01 0.00 68 1011.7
20260503071757 44 17 1.0 6.0 0.00 0.01 0.00 67 1011.7
20260503071658 44 21 3.0 6.0 0.00 0.01 0.00 68 1011.7
20260503071557 44 338 1.0 6.0 0.00 0.01 0.00 67 1011.7
20260503071358 44 338 1.0 6.0 0.00 0.01 0.00 68 1011.8
20260503071257 44 57 3.0 5.0 0.00 0.01 0.00 68 1011.8
20260503071156 44 84 2.0 5.0 0.00 0.01 0.00 67 1011.8
20260503071058 44 11 2.0 5.0 0.00 0.01 0.00 67 1011.8
20260503070958 44 11 1.0 5.0 0.00 0.01 0.00 67 1011.7
20260503070757 44 11 1.0 5.0 0.00 0.01 0.00 67 1011.7
20260503070657 44 22 4.0 5.0 0.00 0.01 0.00 67 1011.7
20260503070557 44 22 4.0 6.0 0.00 0.01 0.00 67 1011.7
20260503070457 44 346 5.0 11.0 0.00 0.01 0.00 68 1011.7
20260503070157 44 314 1.0 11.0 0.00 0.01 0.00 69 1011.7
20260503060258 44 15 2.0 3.0 0.00 0.01 0.00 75 1011.7
20260503060158 44 15 0.0 3.0 0.00 0.01 0.00 75 1011.7
20260503055057 44 15 2.0 5.0 0.00 0.01 0.00 75 1011.7
20260503054958 44 15 3.0 5.0 0.00 0.01 0.00 75 1011.7
20260503054857 44 13 2.0 5.0 0.00 0.01 0.00 76 1011.7
20260503054757 44 333 3.0 5.0 0.00 0.01 0.00 75 1011.7
20260503054658 43 321 3.0 5.0 0.00 0.01 0.00 75 1011.7
20260503054557 43 320 2.0 5.0 0.00 0.01 0.00 76 1011.7
20260503054459 43 319 3.0 5.0 0.00 0.01 0.00 76 1011.7
20260503054257 43 316 1.0 8.0 0.00 0.01 0.00 76 1011.8
20260503054157 43 355 3.0 8.0 0.00 0.01 0.00 76 1011.7
20260503054057 43 332 1.0 8.0 0.00 0.01 0.00 76 1011.7
20260503053959 43 332 1.0 8.0 0.00 0.01 0.00 76 1011.7
20260503053856 43 344 2.0 8.0 0.00 0.01 0.00 76 1011.7
20260503053757 43 329 3.0 8.0 0.00 0.01 0.00 76 1011.8
20260503053657 43 329 2.0 8.0 0.00 0.01 0.00 76 1011.7
20260503053558 43 329 3.0 8.0 0.00 0.01 0.00 77 1011.8
20260503053457 43 247 1.0 8.0 0.00 0.01 0.00 77 1011.7
20260503053358 43 317 4.0 8.0 0.00 0.01 0.00 77 1011.8
20260503053257 43 340 2.0 6.0 0.00 0.01 0.00 77 1011.8
20260503052959 43 336 2.0 6.0 0.00 0.01 0.00 77 1011.8
20260503052857 43 309 3.0 3.0 0.00 0.01 0.00 77 1011.9
20260503052758 43 311 0.0 3.0 0.00 0.01 0.00 77 1011.8
20260503052657 43 311 0.0 3.0 0.00 0.01 0.00 76 1011.8
20260503052557 43 311 2.0 4.0 0.00 0.01 0.00 76 1011.8
20260503052459 43 311 0.0 4.0 0.00 0.01 0.00 76 1011.9
20260503052358 43 311 1.0 4.0 0.00 0.01 0.00 76 1011.9
20260503052257 43 311 2.0 4.0 0.00 0.01 0.00 76 1011.9
20260503052157 43 311 3.0 4.0 0.00 0.01 0.00 76 1011.9
20260503052057 43 333 1.0 4.0 0.00 0.01 0.00 76 1011.9
20260503051959 43 333 2.0 4.0 0.00 0.01 0.00 76 1011.9
20260503051857 43 333 0.0 4.0 0.00 0.01 0.00 77 1011.9
20260503051757 43 333 2.0 4.0 0.00 0.01 0.00 76 1011.9
20260503051656 43 333 2.0 4.0 0.00 0.01 0.00 77 1011.9
20260503051558 43 333 0.0 3.0 0.00 0.01 0.00 76 1011.9
20260503051459 43 333 0.0 3.0 0.00 0.01 0.00 76 1011.9
20260503051356 43 333 2.0 3.0 0.00 0.01 0.00 76 1011.9
20260503051257 43 333 2.0 4.0 0.00 0.01 0.00 76 1012.0
20260503051157 44 333 2.0 4.0 0.00 0.01 0.00 76 1011.9
20260503051057 44 333 0.0 4.0 0.00 0.01 0.00 77 1011.9
20260503050959 44 333 0.0 4.0 0.00 0.01 0.00 77 1011.9
20260503050857 44 333 0.0 4.0 0.00 0.01 0.00 76 1012.0
20260503050759 44 333 2.0 4.0 0.00 0.01 0.00 76 1012.0
20260503050558 44 333 2.0 4.0 0.00 0.01 0.00 76 1011.9
20260503050459 44 333 1.0 5.0 0.00 0.01 0.00 76 1012.0
20260503050357 44 333 3.0 5.0 0.00 0.01 0.00 77 1011.9
20260503050157 44 333 1.0 5.0 0.00 0.01 0.00 76 1012.0
20260503050058 44 333 3.0 5.0 0.00 0.01 0.00 76 1012.0
20260503050000 44 333 2.0 5.0 0.00 0.02 0.00 77 1012.0
20260503045857 44 333 2.0 5.0 0.00 0.02 0.00 77 1012.0
20260503045757 44 328 2.0 5.0 0.00 0.02 0.00 77 1012.0
20260503045557 44 328 3.0 5.0 0.00 0.02 0.00 77 1012.0
20260503045458 44 320 3.0 5.0 0.00 0.02 0.00 77 1012.0
20260503045357 44 321 1.0 5.0 0.00 0.02 0.00 77 1012.0
20260503045157 44 336 2.0 4.0 0.00 0.02 0.00 77 1012.0
20260503045057 44 336 2.0 4.0 0.00 0.02 0.00 77 1012.0
20260503044958 44 269 2.0 3.0 0.00 0.02 0.00 77 1012.1
20260503044857 44 269 1.0 3.0 0.00 0.02 0.00 77 1012.1
20260503044757 44 269 1.0 4.0 0.00 0.02 0.00 77 1012.1
20260503044556 44 232 1.0 4.0 0.00 0.02 0.00 77 1012.1
20260503044357 44 232 1.0 4.0 0.00 0.02 0.00 77 1012.1
20260503044257 44 232 1.0 4.0 0.00 0.02 0.00 77 1012.1
20260503044157 44 232 1.0 4.0 0.00 0.02 0.00 77 1012.1
20260503044057 44 232 1.0 4.0 0.00 0.02 0.00 77 1012.1
20260503043959 44 232 1.0 4.0 0.00 0.02 0.00 77 1012.1
20260503043857 44 231 2.0 3.0 0.00 0.02 0.00 78 1012.2
20260503043757 44 231 2.0 3.0 0.00 0.02 0.00 78 1012.1
20260503043656 44 231 2.0 3.0 0.00 0.02 0.00 78 1012.2
20260503043458 44 231 0.0 3.0 0.00 0.02 0.00 78 1012.1
20260503043357 44 231 2.0 3.0 0.00 0.02 0.00 79 1012.2
20260503043257 44 230 1.0 3.0 0.00 0.02 0.00 79 1012.1
20260503043157 44 231 0.0 3.0 0.00 0.02 0.00 79 1012.2
20260503043057 44 231 2.0 3.0 0.00 0.02 0.00 79 1012.1
20260503042959 44 230 0.0 3.0 0.00 0.02 0.00 79 1012.2
20260503042757 44 230 1.0 3.0 0.00 0.02 0.00 79 1012.2
20260503042657 44 230 0.0 3.0 0.00 0.02 0.00 79 1012.2
20260503042459 44 230 1.0 3.0 0.00 0.02 0.00 79 1012.2
20260503042358 44 230 1.0 3.0 0.00 0.02 0.00 78 1012.2
20260503042256 44 230 0.0 3.0 0.00 0.02 0.00 78 1012.3
20260503042158 44 230 2.0 3.0 0.00 0.02 0.00 78 1012.2
20260503042056 44 230 1.0 3.0 0.00 0.02 0.00 78 1012.3
20260503041958 44 230 1.0 3.0 0.00 0.02 0.00 78 1012.3
20260503041857 44 230 1.0 3.0 0.00 0.02 0.00 78 1012.3
20260503041656 44 230 1.0 3.0 0.00 0.02 0.00 78 1012.3
20260503041559 44 230 2.0 3.0 0.00 0.02 0.00 78 1012.3
20260503041459 44 230 1.0 3.0 0.00 0.02 0.00 78 1012.3
20260503041358 44 230 1.0 3.0 0.00 0.02 0.00 78 1012.3
20260503041256 45 230 0.0 3.0 0.00 0.02 0.00 78 1012.3
20260503041156 45 230 0.0 3.0 0.00 0.02 0.00 77 1012.3
20260503041057 45 230 0.0 3.0 0.00 0.02 0.00 77 1012.3
20260503040959 45 230 0.0 3.0 0.00 0.02 0.00 77 1012.3
20260503040856 45 230 1.0 3.0 0.00 0.02 0.00 77 1012.3
20260503040758 45 230 0.0 3.0 0.00 0.02 0.00 77 1012.3
20260503040658 45 230 1.0 3.0 0.00 0.02 0.00 77 1012.3
20260503040557 45 230 2.0 3.0 0.00 0.02 0.00 77 1012.3
20260503040459 45 230 1.0 3.0 0.00 0.02 0.00 77 1012.4
20260503040357 45 230 1.0 3.0 0.00 0.02 0.00 78 1012.4
20260503040258 45 230 2.0 3.0 0.00 0.02 0.00 78 1012.4
20260503040201 45 230 1.0 3.0 0.00 0.02 0.00 78 1012.4
20260503040006 45 230 2.0 3.0 0.00 0.02 0.00 77 1012.4
20260503035900 45 230 1.0 3.0 0.00 0.03 0.02 77 1012.4
20260503035759 45 230 2.0 3.0 0.00 0.03 0.02 77 1012.4
20260503035701 45 230 2.0 3.0 0.00 0.03 0.02 77 1012.4
20260503035600 45 230 1.0 3.0 0.00 0.03 0.02 78 1012.4
20260503035504 45 230 1.0 3.0 0.00 0.03 0.02 78 1012.4
20260503035359 45 230 0.0 3.0 0.00 0.03 0.02 77 1012.5
20260503035300 45 230 2.0 3.0 0.00 0.03 0.02 78 1012.4
20260503035200 45 227 0.0 2.0 0.00 0.03 0.02 78 1012.5
20260503035002 45 227 1.0 3.0 0.00 0.03 0.02 78 1012.5
20260503034759 45 227 1.0 4.0 0.00 0.03 0.02 77 1012.5
20260503034700 45 227 2.0 4.0 0.00 0.03 0.02 77 1012.5
20260503034559 45 227 0.0 4.0 0.00 0.03 0.02 77 1012.5
20260503034505 45 227 1.0 4.0 0.00 0.03 0.02 78 1012.5
20260503034401 45 227 1.0 4.0 0.00 0.03 0.02 78 1012.5
20260503034259 45 227 0.0 4.0 0.00 0.03 0.02 77 1012.5
20260503034201 45 227 1.0 4.0 0.00 0.03 0.02 77 1012.5
20260503034059 45 227 1.0 4.0 0.00 0.03 0.02 77 1012.5
20260503034001 45 273 2.0 3.0 0.00 0.03 0.02 77 1012.5
20260503033901 45 273 2.0 3.0 0.00 0.03 0.02 77 1012.5
20260503033700 45 273 0.0 3.0 0.00 0.03 0.02 77 1012.5
20260503033558 45 273 2.0 3.0 0.00 0.03 0.02 77 1012.5
20260503033359 45 274 1.0 3.0 0.00 0.03 0.02 77 1012.5
20260503033259 45 274 2.0 3.0 0.00 0.03 0.02 77 1012.5
20260503033200 45 274 1.0 3.0 0.00 0.03 0.02 77 1012.5
20260503033059 45 274 3.0 3.0 0.00 0.03 0.02 77 1012.5
20260503033006 45 274 0.0 3.0 0.00 0.03 0.02 77 1012.5
20260503032859 45 274 2.0 3.0 0.00 0.03 0.02 77 1012.5
20260503032801 45 274 1.0 3.0 0.00 0.03 0.02 77 1012.5
20260503032659 45 274 2.0 3.0 0.00 0.03 0.02 77 1012.5
20260503032600 45 274 0.0 3.0 0.00 0.03 0.02 77 1012.5
20260503032259 46 274 0.0 3.0 0.00 0.03 0.02 77 1012.5
20260503032159 46 274 3.0 3.0 0.00 0.03 0.02 77 1012.5
20260503032001 46 232 0.0 3.0 0.00 0.03 0.02 76 1012.6
20260503031859 46 232 1.0 3.0 0.00 0.03 0.02 76 1012.6
20260503031759 46 232 0.0 3.0 0.00 0.03 0.02 76 1012.6
20260503031700 46 232 1.0 3.0 0.00 0.03 0.02 76 1012.6
20260503031504 46 232 1.0 4.0 0.00 0.03 0.02 76 1012.6
20260503031259 46 232 2.0 4.0 0.00 0.03 0.02 76 1012.6
20260503031200 46 231 1.0 4.0 0.00 0.03 0.02 76 1012.6
20260503031100 46 231 1.0 4.0 0.00 0.03 0.02 77 1012.6
20260503031001 46 231 1.0 4.0 0.00 0.03 0.02 77 1012.6
20260503030700 46 231 0.0 4.0 0.00 0.03 0.02 76 1012.7
20260503030600 46 231 1.0 4.0 0.00 0.03 0.02 76 1012.6
20260503030501 46 238 2.0 4.0 0.00 0.03 0.02 75 1012.6
20260503030300 46 238 1.0 4.0 0.00 0.03 0.02 76 1012.6
20260503030200 46 238 0.0 4.0 0.00 0.03 0.02 76 1012.7
20260503030059 46 238 0.0 4.0 0.00 0.03 0.02 76 1012.7
20260503030004 46 238 0.0 4.0 0.00 0.03 0.02 76 1012.7
20260503025759 46 9 1.0 2.0 0.00 0.03 0.02 76 1012.7
20260503025659 46 9 0.0 2.0 0.00 0.03 0.02 76 1012.7
20260503025600 46 9 0.0 3.0 0.00 0.03 0.02 76 1012.7
20260503025503 46 9 1.0 3.0 0.00 0.03 0.02 76 1012.7
20260503025359 46 9 0.0 3.0 0.00 0.03 0.02 75 1012.7
20260503025259 46 9 1.0 3.0 0.00 0.03 0.02 76 1012.7
20260503025159 46 9 1.0 3.0 0.00 0.03 0.02 76 1012.6
20260503025058 46 9 0.0 3.0 0.00 0.03 0.02 75 1012.7
20260503025000 46 9 1.0 3.0 0.00 0.03 0.02 75 1012.7
20260503024900 46 9 0.0 3.0 0.00 0.03 0.02 74 1012.7
20260503024801 46 9 1.0 3.0 0.00 0.03 0.02 75 1012.7
20260503024701 46 9 2.0 3.0 0.00 0.03 0.02 75 1012.7
20260503024559 46 9 3.0 3.0 0.00 0.03 0.02 74 1012.7
20260503024501 46 9 1.0 2.0 0.00 0.03 0.02 75 1012.7
20260503024359 46 9 1.0 2.0 0.00 0.03 0.02 75 1012.7
20260503024300 46 9 0.0 2.0 0.00 0.03 0.02 74 1012.7
20260503024200 46 9 1.0 2.0 0.00 0.03 0.02 74 1012.7
20260503024059 46 9 1.0 2.0 0.00 0.03 0.02 74 1012.7
20260503024000 46 9 0.0 3.0 0.00 0.03 0.02 74 1012.7
20260503023900 46 9 0.0 3.0 0.00 0.03 0.02 74 1012.7
20260503023800 46 9 1.0 3.0 0.00 0.03 0.02 75 1012.7
20260503023601 46 9 2.0 3.0 0.00 0.03 0.02 74 1012.7
20260503023359 46 9 2.0 3.0 0.00 0.03 0.02 75 1012.7
20260503023300 46 9 2.0 3.0 0.00 0.03 0.02 75 1012.7
20260503023200 46 9 1.0 3.0 0.00 0.03 0.02 74 1012.7
20260503023059 46 9 0.0 3.0 0.00 0.03 0.02 74 1012.7
20260503023005 47 5 2.0 3.0 0.00 0.03 0.02 74 1012.7
20260503022900 47 5 1.0 4.0 0.00 0.03 0.02 74 1012.8
20260503022800 47 13 2.0 4.0 0.00 0.03 0.02 74 1012.8
20260503022659 47 13 1.0 6.0 0.00 0.03 0.02 74 1012.8
20260503022559 47 13 1.0 6.0 0.00 0.03 0.02 74 1012.8
20260503022500 47 13 0.0 6.0 0.00 0.03 0.02 74 1012.8
20260503022200 47 13 0.0 6.0 0.00 0.03 0.02 73 1012.8
20260503022059 47 13 2.0 6.0 0.00 0.03 0.02 73 1012.8
20260503022003 47 13 2.0 6.0 0.00 0.03 0.02 74 1012.8
20260503021800 47 264 2.0 6.0 0.00 0.03 0.02 74 1012.8
20260503021659 47 263 2.0 4.0 0.00 0.03 0.02 73 1012.8
20260503021600 47 264 2.0 4.0 0.00 0.03 0.02 74 1012.8
20260503021500 47 257 1.0 4.0 0.00 0.03 0.02 74 1012.8
20260503021359 47 257 0.0 4.0 0.00 0.03 0.02 74 1012.8
20260503021259 47 257 1.0 4.0 0.00 0.03 0.02 74 1012.8
20260503021100 47 257 2.0 4.0 0.00 0.03 0.02 73 1012.8
20260503021004 47 257 1.0 4.0 0.00 0.03 0.02 73 1012.8
20260503020900 47 257 0.0 4.0 0.00 0.03 0.02 73 1012.8
20260503020759 47 257 2.0 4.0 0.00 0.03 0.02 73 1012.8
20260503020700 47 267 2.0 4.0 0.00 0.03 0.02 73 1012.8
20260503020559 47 248 1.0 4.0 0.00 0.03 0.02 73 1012.8
20260503020501 47 248 1.0 4.0 0.00 0.03 0.02 72 1012.8
20260503020359 47 248 0.0 4.0 0.00 0.03 0.02 72 1012.8
20260503020259 47 248 2.0 4.0 0.00 0.03 0.02 73 1012.9
20260503020201 47 248 0.0 4.0 0.00 0.03 0.02 73 1012.8
20260503020058 47 248 3.0 4.0 0.00 0.03 0.02 73 1012.8
20260503020005 47 248 1.0 4.0 0.00 0.03 0.02 73 1012.8
20260503015759 47 246 3.0 4.0 0.00 0.03 0.02 73 1012.8
20260503015659 47 10 1.0 3.0 0.00 0.03 0.02 73 1012.8
20260503015601 47 10 0.0 0.0 0.00 0.03 0.02 73 1012.9
20260503015506 47 10 0.0 0.0 0.00 0.03 0.02 73 1012.8
20260503015359 47 10 0.0 2.0 0.00 0.03 0.02 73 1012.8
20260503015259 47 10 0.0 3.0 0.00 0.03 0.02 73 1012.8
20260503015158 47 10 0.0 3.0 0.00 0.03 0.02 73 1012.8
20260503015100 47 10 0.0 3.0 0.00 0.03 0.02 73 1012.8
20260503015005 47 10 0.0 3.0 0.00 0.03 0.02 72 1012.8
20260503014859 47 10 0.0 3.0 0.00 0.03 0.02 72 1012.8
20260503014759 47 10 0.0 3.0 0.00 0.03 0.02 73 1012.8
20260503014659 47 10 0.0 3.0 0.00 0.03 0.02 73 1012.8
20260503014559 47 10 0.0 3.0 0.00 0.03 0.02 73 1012.8
20260503014500 47 10 0.0 3.0 0.00 0.03 0.02 72 1012.8
20260503014359 47 10 1.0 3.0 0.00 0.03 0.02 72 1012.8
20260503014259 47 10 1.0 3.0 0.00 0.03 0.02 72 1012.8
20260503014200 47 10 2.0 3.0 0.00 0.03 0.02 72 1012.7
20260503014059 47 10 0.0 3.0 0.00 0.03 0.02 73 1012.7
20260503014001 47 10 0.0 3.0 0.00 0.03 0.02 72 1012.7
20260503013900 47 10 1.0 3.0 0.00 0.03 0.02 72 1012.7
20260503013759 47 10 1.0 5.0 0.00 0.03 0.02 71 1012.6
20260503013659 47 10 2.0 5.0 0.00 0.03 0.02 71 1012.6
20260503013558 47 10 0.0 5.0 0.00 0.03 0.02 72 1012.6
20260503013500 47 10 0.0 5.0 0.00 0.03 0.02 71 1012.7
20260503013359 47 10 0.0 5.0 0.00 0.03 0.02 72 1012.7
20260503013259 47 10 0.0 5.0 0.00 0.03 0.02 71 1012.7
20260503013159 47 10 1.0 5.0 0.00 0.03 0.02 71 1012.6
20260503013100 47 10 1.0 5.0 0.00 0.03 0.02 71 1012.7
20260503013001 47 10 3.0 5.0 0.00 0.03 0.02 71 1012.7
20260503012900 47 9 2.0 5.0 0.00 0.03 0.02 71 1012.6
20260503012800 47 17 2.0 5.0 0.00 0.03 0.02 70 1012.5
20260503012658 47 56 4.0 5.0 0.00 0.03 0.02 71 1012.6
20260503012600 47 286 1.0 4.0 0.00 0.03 0.02 71 1012.7
20260503012504 47 286 0.0 4.0 0.00 0.03 0.02 71 1012.6
20260503012359 47 286 0.0 4.0 0.00 0.03 0.02 70 1012.6
20260503012259 47 286 2.0 5.0 0.00 0.03 0.02 70 1012.6
20260503012159 47 286 2.0 5.0 0.00 0.03 0.02 70 1012.6
20260503012100 47 286 3.0 5.0 0.00 0.03 0.02 70 1012.6
20260503011800 47 14 2.0 7.0 0.00 0.03 0.02 70 1012.6
20260503011659 47 14 0.0 7.0 0.00 0.03 0.02 70 1012.6
20260503011505 47 355 2.0 7.0 0.00 0.03 0.02 71 1012.6
20260503011259 47 355 3.0 7.0 0.00 0.03 0.02 70 1012.5
20260503011159 47 252 2.0 7.0 0.00 0.03 0.02 71 1012.5
20260503011059 47 252 1.0 7.0 0.00 0.03 0.02 71 1012.5
20260503011001 47 252 1.0 7.0 0.00 0.03 0.02 71 1012.5
20260503010858 47 252 4.0 7.0 0.00 0.03 0.02 72 1012.4
20260503010759 47 193 3.0 3.0 0.00 0.03 0.02 72 1012.4
20260503010659 47 269 0.0 3.0 0.00 0.03 0.02 71 1012.4
20260503010600 47 269 0.0 3.0 0.00 0.03 0.02 71 1012.4
20260503010503 47 269 2.0 3.0 0.00 0.03 0.02 70 1012.4
20260503010359 47 269 1.0 3.0 0.00 0.03 0.02 71 1012.4
20260503010259 47 269 0.0 3.0 0.00 0.03 0.02 71 1012.4
20260503010159 47 269 1.0 3.0 0.00 0.03 0.02 71 1012.3
20260503010100 47 269 3.0 4.0 0.00 0.03 0.02 71 1012.3
20260503005859 47 269 2.0 4.0 0.00 0.03 0.02 71 1012.3
20260503005759 47 269 3.0 4.0 0.00 0.03 0.02 72 1012.3
20260503005659 47 259 1.0 4.0 0.00 0.03 0.02 71 1012.2
20260503005558 47 259 0.0 4.0 0.00 0.03 0.02 71 1012.2
20260503005503 47 259 1.0 4.0 0.00 0.03 0.02 71 1012.2
20260503005359 47 259 0.0 4.0 0.00 0.03 0.02 71 1012.2
20260503005259 47 259 0.0 4.0 0.00 0.03 0.02 70 1012.2
20260503005200 47 258 2.0 4.0 0.00 0.03 0.02 70 1012.2
20260503005100 47 317 2.0 4.0 0.00 0.03 0.02 70 1012.2
20260503005001 47 337 2.0 4.0 0.00 0.03 0.02 70 1012.2
20260503004900 47 336 3.0 4.0 0.00 0.03 0.02 70 1012.2
20260503004759 47 215 0.0 4.0 0.00 0.03 0.02 70 1012.2
20260503004559 47 215 0.0 6.0 0.00 0.03 0.02 70 1012.2
20260503004504 47 215 1.0 6.0 0.00 0.03 0.02 71 1012.2
20260503004401 47 215 2.0 6.0 0.00 0.03 0.02 70 1012.2
20260503004300 47 14 2.0 6.0 0.00 0.03 0.02 70 1012.1
20260503004159 47 15 1.0 6.0 0.00 0.03 0.02 71 1012.2
20260503004059 47 15 1.0 6.0 0.00 0.03 0.02 70 1012.2
20260503004002 47 15 2.0 6.0 0.00 0.03 0.02 71 1012.2
20260503003900 47 15 1.0 6.0 0.00 0.03 0.02 71 1012.2
20260503003800 47 18 2.0 6.0 0.00 0.03 0.02 70 1012.2
20260503003659 47 9 7.0 7.0 0.00 0.03 0.02 70 1012.2
20260503003559 47 229 2.0 6.0 0.00 0.03 0.02 70 1012.2
20260503003359 48 360 1.0 6.0 0.00 0.03 0.02 71 1012.1
20260503003300 48 360 1.0 6.0 0.00 0.03 0.02 70 1012.2
20260503003059 48 360 2.0 6.0 0.00 0.03 0.02 69 1012.1
20260503003006 48 355 2.0 6.0 0.00 0.03 0.02 69 1012.2
20260503002859 48 355 3.0 6.0 0.00 0.03 0.02 71 1012.2
20260503002659 48 295 1.0 5.0 0.00 0.03 0.02 70 1012.1
20260503002559 48 295 0.0 8.0 0.00 0.03 0.02 70 1012.1
20260503002505 48 295 0.0 10.0 0.00 0.03 0.02 69 1012.1
20260503002400 48 295 1.0 10.0 0.00 0.03 0.02 69 1012.1
20260503002259 48 294 2.0 10.0 0.00 0.03 0.02 69 1012.1
20260503002159 48 298 3.0 10.0 0.00 0.03 0.02 69 1012.1
20260503002004 48 254 2.0 10.0 0.00 0.03 0.02 69 1012.1
20260503001859 48 331 3.0 10.0 0.00 0.03 0.02 69 1012.1
20260503001800 48 9 1.0 10.0 0.00 0.03 0.02 68 1012.1
20260503001700 48 5 3.0 10.0 0.00 0.03 0.02 68 1012.0
20260503001600 48 24 9.0 9.0 0.00 0.03 0.02 69 1012.0
20260503001500 48 314 2.0 6.0 0.00 0.03 0.02 68 1012.0
20260503001359 48 314 2.0 6.0 0.00 0.03 0.02 68 1012.0
20260503001259 48 300 2.0 6.0 0.00 0.03 0.02 69 1012.0
20260503001159 48 296 2.0 6.0 0.00 0.03 0.02 69 1012.0
20260503001100 48 296 1.0 6.0 0.00 0.03 0.02 68 1012.0
20260503001004 48 322 3.0 6.0 0.00 0.03 0.02 68 1011.9
20260503000900 48 265 1.0 5.0 0.00 0.03 0.02 69 1011.9
20260503000759 48 251 3.0 5.0 0.00 0.03 0.02 69 1011.9
20260503000701 48 337 0.0 5.0 0.00 0.03 0.02 69 1011.9
20260503000600 48 337 0.0 5.0 0.00 0.03 0.02 69 1011.9
20260503000502 48 337 1.0 5.0 0.00 0.03 0.02 69 1011.9
20260503000400 48 337 0.0 5.0 0.00 0.03 0.02 69 1011.9
20260503000158 49 346 2.0 5.0 0.00 0.03 0.02 68 1011.9
20260503000100 49 22 3.0 5.0 0.00 0.03 0.02 68 1011.9
20260503000005 49 355 3.0 5.0 0.00 0.03 0.02 68 1011.9
20260502235859 49 343 3.0 8.0 0.00 0.03 0.02 69 1011.9
20260502235800 49 259 3.0 8.0 0.00 0.03 0.02 69 1011.9
20260502235659 49 5 1.0 8.0 0.00 0.03 0.02 69 1011.9
20260502235558 49 5 0.0 8.0 0.00 0.03 0.02 68 1011.8
20260502235502 49 5 1.0 8.0 0.00 0.03 0.02 68 1011.9
20260502235359 49 5 2.0 8.0 0.00 0.03 0.02 68 1011.9
20260502235159 49 23 3.0 8.0 0.00 0.03 0.02 68 1011.9
20260502235058 49 23 3.0 8.0 0.00 0.03 0.02 67 1011.8
20260502235002 49 24 2.0 8.0 0.00 0.03 0.02 67 1011.9
20260502234659 49 26 3.0 8.0 0.00 0.03 0.02 66 1011.8
20260502234600 49 27 2.0 8.0 0.00 0.03 0.02 66 1011.8
20260502234400 49 322 4.0 8.0 0.00 0.03 0.02 66 1011.7
20260502234300 49 298 1.0 8.0 0.00 0.03 0.02 67 1011.8
20260502234200 49 303 2.0 8.0 0.00 0.03 0.02 66 1011.7
20260502234002 50 25 3.0 9.0 0.00 0.03 0.02 66 1011.7
20260502233858 50 269 1.0 9.0 0.00 0.03 0.02 66 1011.7
20260502233800 50 294 1.0 9.0 0.00 0.03 0.02 67 1011.7
20260502233700 50 294 1.0 9.0 0.00 0.03 0.02 67 1011.7
20260502233600 50 5 1.0 9.0 0.00 0.03 0.02 65 1011.6
20260502233500 50 5 1.0 9.0 0.00 0.03 0.02 65 1011.6
20260502233359 50 5 1.0 9.0 0.00 0.03 0.02 65 1011.6
20260502233300 50 5 2.0 9.0 0.00 0.03 0.02 65 1011.6
20260502233200 50 350 5.0 9.0 0.00 0.03 0.02 64 1011.6
20260502233059 50 313 6.0 9.0 0.00 0.03 0.02 64 1011.5
20260502232901 50 299 1.0 8.0 0.00 0.03 0.02 64 1011.6
20260502232701 51 5 2.0 6.0 0.00 0.03 0.02 64 1011.5
20260502232600 51 355 3.0 6.0 0.00 0.03 0.02 63 1011.4
20260502232501 51 344 2.0 6.0 0.00 0.03 0.02 63 1011.5
20260502232400 51 334 1.0 6.0 0.00 0.03 0.02 62 1011.4
20260502232259 51 329 2.0 6.0 0.00 0.03 0.02 63 1011.4
20260502232005 51 343 4.0 9.0 0.00 0.03 0.02 61 1011.4
20260502231858 51 326 3.0 12.0 0.00 0.03 0.02 62 1011.4
20260502231759 51 305 3.0 12.0 0.00 0.03 0.02 62 1011.4
20260502231659 51 303 3.0 12.0 0.00 0.03 0.02 62 1011.3
20260502231559 51 302 1.0 12.0 0.00 0.03 0.02 62 1011.3
20260502231500 51 303 7.0 12.0 0.00 0.03 0.02 60 1011.3
20260502231359 51 39 3.0 12.0 0.00 0.03 0.02 61 1011.3
20260502231259 51 28 3.0 12.0 0.00 0.03 0.02 60 1011.3
20260502231200 51 9 3.0 12.0 0.00 0.03 0.02 60 1011.3
20260502231058 51 355 5.0 12.0 0.00 0.03 0.02 60 1011.3
20260502231005 51 360 5.0 12.0 0.00 0.03 0.02 60 1011.3
20260502230858 51 5 1.0 9.0 0.00 0.03 0.02 59 1011.3
20260502230759 51 18 2.0 9.0 0.00 0.03 0.02 59 1011.3
20260502230659 51 347 2.0 8.0 0.00 0.03 0.02 60 1011.3
20260502230559 51 333 3.0 6.0 0.00 0.03 0.02 60 1011.2
20260502230501 51 333 1.0 8.0 0.00 0.03 0.02 59 1011.2
20260502230359 51 333 2.0 8.0 0.00 0.03 0.02 58 1011.3
20260502230259 52 5 5.0 8.0 0.00 0.03 0.02 58 1011.2
20260502230201 52 299 4.0 8.0 0.00 0.03 0.02 58 1011.2
20260502230059 52 339 3.0 8.0 0.00 0.03 0.02 58 1011.3
20260502230005 52 340 6.0 8.0 0.00 0.03 0.02 59 1011.2
20260502225859 52 5 2.0 8.0 0.00 0.03 0.02 58 1011.2
20260502225700 52 40 3.0 8.0 0.00 0.03 0.02 57 1011.2
20260502225559 52 5 6.0 6.0 0.00 0.03 0.02 57 1011.2
20260502225359 52 270 2.0 6.0 0.00 0.03 0.02 58 1011.1
20260502225300 52 263 1.0 9.0 0.00 0.03 0.02 59 1011.1
20260502225159 52 264 2.0 9.0 0.00 0.03 0.02 58 1011.2
20260502225059 52 339 5.0 9.0 0.00 0.03 0.02 58 1011.2
20260502225000 52 324 4.0 9.0 0.00 0.03 0.02 58 1011.1
20260502224859 52 324 2.0 9.0 0.00 0.03 0.02 57 1011.1
20260502224758 52 355 5.0 9.0 0.00 0.03 0.02 57 1011.2
20260502224659 52 320 3.0 11.0 0.00 0.03 0.02 57 1011.1
20260502224600 52 272 3.0 11.0 0.00 0.03 0.02 58 1011.2
20260502224505 52 330 3.0 11.0 0.00 0.03 0.02 58 1011.1
20260502224400 52 5 9.0 11.0 0.00 0.03 0.02 58 1011.1
20260502224259 52 10 3.0 11.0 0.00 0.03 0.02 59 1011.1
20260502224200 52 10 1.0 11.0 0.00 0.03 0.02 58 1011.1
20260502224100 52 10 2.0 11.0 0.00 0.03 0.02 59 1011.1
20260502224004 52 11 7.0 11.0 0.00 0.03 0.02 58 1011.0
20260502223859 52 328 2.0 11.0 0.00 0.03 0.02 57 1011.0
20260502223659 52 55 3.0 8.0 0.00 0.03 0.02 56 1011.0
20260502223559 52 355 3.0 8.0 0.00 0.03 0.02 56 1011.1
20260502223504 52 5 2.0 8.0 0.00 0.03 0.02 56 1011.0
20260502223359 53 355 4.0 8.0 0.00 0.03 0.02 56 1011.1
20260502223258 53 5 8.0 8.0 0.00 0.03 0.02 55 1011.1
20260502223058 53 24 3.0 8.0 0.00 0.03 0.02 56 1011.0
20260502223004 53 11 4.0 7.0 0.00 0.03 0.02 55 1011.1
20260502222759 53 327 5.0 6.0 0.00 0.03 0.02 56 1011.0
20260502222659 53 321 1.0 6.0 0.00 0.03 0.02 57 1011.0
20260502222559 53 309 3.0 6.0 0.00 0.03 0.02 56 1011.0
20260502222502 53 309 2.0 6.0 0.00 0.03 0.02 56 1011.0
20260502222300 53 325 3.0 6.0 0.00 0.03 0.02 57 1011.0
20260502222159 53 326 3.0 6.0 0.00 0.03 0.02 57 1010.9
20260502222059 53 325 3.0 6.0 0.00 0.03 0.02 56 1011.0
20260502222004 53 325 3.0 6.0 0.00 0.03 0.02 55 1010.9
20260502221859 53 339 2.0 5.0 0.00 0.03 0.02 57 1011.0
20260502221759 53 58 1.0 5.0 0.00 0.03 0.02 56 1011.0
20260502221559 53 58 2.0 5.0 0.00 0.03 0.02 56 1010.9
20260502221359 53 22 1.0 9.0 0.00 0.03 0.02 58 1011.0
20260502221258 53 22 0.0 9.0 0.00 0.03 0.02 57 1011.0
20260502221159 53 22 2.0 9.0 0.00 0.03 0.02 59 1011.0
20260502221004 53 11 4.0 9.0 0.00 0.03 0.02 56 1011.0
20260502220859 53 5 2.0 9.0 0.00 0.03 0.02 57 1011.0
20260502220800 53 9 4.0 9.0 0.00 0.03 0.02 56 1011.0
20260502220659 53 322 4.0 9.0 0.00 0.03 0.02 55 1010.9
20260502220559 53 5 3.0 9.0 0.00 0.03 0.02 55 1010.9
20260502220400 53 10 4.0 8.0 0.00 0.03 0.02 56 1011.0
20260502220259 53 30 2.0 8.0 0.00 0.03 0.02 55 1011.0
20260502220058 53 28 2.0 6.0 0.00 0.03 0.02 55 1011.0
20260502220005 53 28 3.0 6.0 0.00 0.03 0.02 56 1011.0
20260502215859 53 46 3.0 6.0 0.00 0.03 0.02 55 1011.0
20260502215800 54 41 4.0 6.0 0.00 0.03 0.02 56 1011.0
20260502215659 54 324 3.0 4.0 0.00 0.03 0.02 56 1010.9
20260502215559 54 19 4.0 4.0 0.00 0.03 0.02 56 1010.9
20260502215359 54 265 2.0 4.0 0.00 0.03 0.02 56 1010.9
20260502215259 54 265 2.0 4.0 0.00 0.03 0.02 55 1011.0
20260502215201 54 265 2.0 3.0 0.00 0.03 0.02 56 1010.9
20260502215100 54 265 1.0 4.0 0.00 0.03 0.02 57 1011.0
20260502215001 54 265 1.0 4.0 0.00 0.03 0.02 56 1011.0
20260502214900 54 265 1.0 4.0 0.00 0.03 0.02 56 1010.9
20260502214800 54 265 1.0 5.0 0.00 0.03 0.02 54 1010.9
20260502214659 54 265 2.0 5.0 0.00 0.03 0.02 54 1010.9
20260502214600 54 265 0.0 5.0 0.00 0.03 0.02 55 1010.9
20260502214500 54 265 2.0 5.0 0.00 0.03 0.02 55 1010.7
20260502214359 54 264 0.0 5.0 0.00 0.03 0.02 56 1010.7
20260502214159 54 264 2.0 5.0 0.00 0.03 0.02 54 1010.7
20260502214100 54 264 2.0 5.0 0.00 0.03 0.02 55 1010.7
20260502213759 54 252 2.0 5.0 0.00 0.03 0.02 55 1010.7
20260502213659 54 252 1.0 5.0 0.00 0.03 0.02 54 1010.7
20260502213601 54 252 2.0 5.0 0.00 0.03 0.02 53 1010.7
20260502213500 54 257 3.0 4.0 0.00 0.03 0.02 57 1010.7
20260502213400 54 257 2.0 4.0 0.00 0.03 0.02 53 1010.7
20260502213259 54 257 2.0 4.0 0.00 0.03 0.02 55 1010.7
20260502213159 54 252 2.0 4.0 0.00 0.03 0.02 55 1010.6
20260502213059 54 252 3.0 4.0 0.00 0.03 0.02 53 1010.7
20260502213000 54 252 3.0 4.0 0.00 0.03 0.02 53 1010.6
20260502212858 54 252 3.0 4.0 0.00 0.03 0.02 54 1010.6
20260502212759 54 248 0.0 4.0 0.00 0.03 0.02 53 1010.6
20260502212659 54 248 2.0 4.0 0.00 0.03 0.02 54 1010.6
20260502212600 54 248 3.0 4.0 0.00 0.03 0.02 57 1010.6
20260502212504 54 248 1.0 4.0 0.00 0.03 0.02 54 1010.5
20260502212258 54 246 3.0 4.0 0.00 0.03 0.02 54 1010.6
20260502212100 54 244 2.0 4.0 0.00 0.03 0.02 55 1010.5
20260502212001 54 34 3.0 4.0 0.00 0.03 0.02 54 1010.6
20260502211859 54 42 2.0 4.0 0.00 0.03 0.02 55 1010.5
20260502211759 54 42 1.0 4.0 0.00 0.03 0.02 55 1010.5
20260502211659 54 42 2.0 4.0 0.00 0.03 0.02 56 1010.5
20260502211558 54 42 1.0 4.0 0.00 0.03 0.02 53 1010.5
20260502211501 54 42 4.0 6.0 0.00 0.03 0.02 55 1010.5
20260502211358 54 43 1.0 6.0 0.00 0.03 0.02 55 1010.5
20260502211259 54 42 2.0 6.0 0.00 0.03 0.02 55 1010.5
20260502211201 54 324 2.0 6.0 0.00 0.03 0.02 55 1010.5
20260502211059 54 355 0.0 6.0 0.00 0.03 0.02 57 1010.5
20260502211004 54 360 2.0 6.0 0.00 0.03 0.02 55 1010.5
20260502210859 54 360 4.0 6.0 0.00 0.03 0.02 55 1010.5
20260502210759 54 157 0.0 6.0 0.00 0.03 0.02 55 1010.5
20260502210659 54 157 1.0 6.0 0.00 0.03 0.02 56 1010.5
20260502210600 54 157 1.0 6.0 0.00 0.03 0.02 55 1010.5
20260502210401 54 305 4.0 4.0 0.00 0.03 0.02 53 1010.5
20260502210259 54 279 3.0 5.0 0.00 0.03 0.02 54 1010.5
20260502210159 54 257 2.0 5.0 0.00 0.03 0.02 55 1010.5
20260502210059 54 276 4.0 5.0 0.00 0.03 0.02 56 1010.5
20260502210001 54 278 3.0 5.0 0.00 0.03 0.02 55 1010.5
20260502205857 54 278 1.0 5.0 0.00 0.03 0.02 53 1010.5
20260502205758 54 278 2.0 5.0 0.00 0.03 0.02 54 1010.5
20260502205658 54 269 3.0 5.0 0.00 0.03 0.02 55 1010.5
20260502205559 54 267 3.0 5.0 0.00 0.03 0.02 56 1010.5
20260502205501 54 11 1.0 5.0 0.00 0.03 0.02 55 1010.5
20260502205358 54 15 4.0 6.0 0.00 0.03 0.02 56 1010.5
20260502205257 54 5 5.0 6.0 0.00 0.03 0.02 54 1010.5
20260502205159 54 24 3.0 6.0 0.00 0.03 0.02 55 1010.6
20260502205059 54 63 5.0 6.0 0.00 0.03 0.02 57 1010.6
20260502205000 54 27 1.0 6.0 0.00 0.03 0.02 55 1010.6
20260502204858 54 27 0.0 6.0 0.00 0.03 0.02 55 1010.6
20260502204759 54 27 2.0 6.0 0.00 0.03 0.02 54 1010.6
20260502204559 54 333 2.0 6.0 0.00 0.03 0.02 54 1010.6
20260502204459 54 333 4.0 6.0 0.00 0.03 0.02 55 1010.6
20260502204258 54 283 1.0 4.0 0.00 0.03 0.02 58 1010.5
20260502204058 54 283 0.0 4.0 0.00 0.03 0.02 56 1010.6
20260502203959 54 283 2.0 4.0 0.00 0.03 0.02 56 1010.5
20260502203858 54 251 1.0 4.0 0.00 0.03 0.02 57 1010.6
20260502203758 54 251 1.0 4.0 0.00 0.03 0.02 56 1010.5
20260502203658 54 251 2.0 4.0 0.00 0.03 0.02 53 1010.5
20260502203558 54 269 3.0 4.0 0.00 0.03 0.02 54 1010.5
20260502203500 54 286 1.0 4.0 0.00 0.03 0.02 60 1010.6
20260502203358 54 286 1.0 6.0 0.00 0.03 0.02 56 1010.6
20260502203258 54 286 2.0 6.0 0.00 0.03 0.02 56 1010.6
20260502203158 54 281 2.0 6.0 0.00 0.03 0.02 56 1010.5
20260502203001 54 281 1.0 6.0 0.00 0.03 0.02 56 1010.5
20260502202859 54 281 2.0 6.0 0.00 0.03 0.02 57 1010.5
20260502202758 54 20 1.0 6.0 0.00 0.03 0.02 57 1010.5
20260502202658 54 20 2.0 6.0 0.00 0.03 0.02 57 1010.6
20260502202559 54 20 2.0 6.0 0.00 0.03 0.02 56 1010.6
20260502202500 54 24 4.0 6.0 0.00 0.03 0.02 56 1010.6
20260502202359 54 304 3.0 5.0 0.00 0.03 0.02 54 1010.7
20260502202257 54 301 3.0 5.0 0.00 0.03 0.02 56 1010.7
20260502202200 54 290 3.0 5.0 0.00 0.03 0.02 56 1010.7
20260502202058 54 293 1.0 5.0 0.00 0.03 0.02 55 1010.7
20260502202001 54 293 1.0 5.0 0.00 0.03 0.02 55 1010.8
20260502201857 54 293 2.0 5.0 0.00 0.03 0.02 55 1010.7
20260502201758 54 293 1.0 5.0 0.00 0.03 0.02 55 1010.7
20260502201658 54 293 2.0 5.0 0.00 0.03 0.02 55 1010.8
20260502201557 54 293 3.0 6.0 0.00 0.03 0.02 56 1010.7
20260502201358 54 271 3.0 6.0 0.00 0.03 0.02 55 1010.7
20260502201300 54 257 5.0 5.0 0.00 0.03 0.02 56 1010.7
20260502201001 54 27 4.0 7.0 0.00 0.03 0.02 55 1010.8
20260502200858 54 261 2.0 7.0 0.00 0.03 0.02 55 1010.8
20260502200757 54 261 2.0 7.0 0.00 0.03 0.02 56 1010.8
20260502200659 54 261 0.0 7.0 0.00 0.03 0.02 55 1010.8
20260502200558 54 261 0.0 7.0 0.00 0.03 0.02 55 1010.9
20260502200501 55 261 3.0 7.0 0.00 0.03 0.02 54 1010.9
20260502200357 55 261 1.0 7.0 0.00 0.03 0.02 53 1010.9
20260502200258 55 261 2.0 7.0 0.00 0.03 0.02 52 1010.9
20260502200158 55 261 1.0 8.0 0.00 0.03 0.02 53 1010.9